******************************************************************************* JPL/HORIZONS Catalina (C/1999 F1) 2022-May-21 11:54:58 Rec #:90002377 (+COV) Soln.date: 2021-Apr-15_23:29:57 # obs: 166 (1999-2005) IAU76/J2000 helio. ecliptic osc. elements (au, days, deg., period=Julian yrs): EPOCH= 2452054.5 ! 2001-May-25.0000000 (TDB) RMSW= n.a. EC= .9991295234393676 QR= 5.787018611359847 TP= 2452319.1440778025 OM= 20.02313274635543 W= 255.157503764398 IN= 92.03538807790534 A= 6648.103892832371 MA= 359.9995188067162 ADIST= 13290.42076705338 PER= 542069.42378352 N= 1.818E-6 ANGMOM= .058509899 DAN= 15.54847 DDN= 9.21143 L= 192.3896536 B= -75.0217069 MOID= 5.45342016 TP= 2002-Feb-13.6440778025 Comet physical (GM= km^3/s^2; RAD= km): GM= n.a. RAD= n.a. M1= 5.9 M2= 9. k1= 7.5 k2= 5. PHCOF= .030 COMET comments 1: soln ref.= JPL#45, data arc: 1999-03-13 to 2005-08-28 2: k1=7.5, k2=5., phase coef.=0.03; ******************************************************************************* ******************************************************************************* Ephemeris / WWW_USER Sat May 21 11:54:58 2022 Pasadena, USA / Horizons ******************************************************************************* Target body name: Catalina (C/1999 F1) {source: JPL#45} Center body name: Neptune (899) {source: nep101_merged} Center-site name: BODYCENTRIC ******************************************************************************* Start time : A.D. 1990-Jan-28 00:00:00.0000 UT Stop time : A.D. 2020-Jan-01 00:00:00.0000 UT Step-size : 1 calendar month ******************************************************************************* Target pole/equ : No model available Target radii : (unavailable) Center geodetic : 0.00000000,0.00000000,0.0000000 {W-lon(deg),Lat(deg),Alt(km)} Center cylindric: 0.00000000,0.00000000,0.0000000 {W-lon(deg),Dxy(km),Dz(km)} Center pole/equ : IAU_NEPTUNE {West-longitude positive} Center radii : 24764.0 x 24764.0 x 24341.0 km {Equator, meridian, pole} Target primary : Sun Vis. interferer : TRITON (R_eq= 1352.600) km {source: nep097f_merged} Rel. light bend : Sun, NEPTUNE {source: nep101_merged} Rel. lght bnd GM: 1.3271E+11, 6.8351E+06 km^3/s^2 Small-body perts: Yes {source: SB441-N16} Atmos refraction: NO (AIRLESS) RA format : HMS Time format : CAL EOP file : eop.220519.p220812 EOP coverage : DATA-BASED 1962-JAN-20 TO 2022-MAY-19. PREDICTS-> 2022-AUG-11 Units conversion: 1 au= 149597870.700 km, c= 299792.458 km/s, 1 day= 86400.0 s Table cut-offs 1: Elevation (-90.0deg=NO ),Airmass n.a. , Daylight (NO ) Table cut-offs 2: Solar elongation ( 0.0,180.0=NO ),Local Hour Angle( 0.0=NO ) Table cut-offs 3: RA/DEC angular rate ( 0.0=NO ) ******************************************************************************* Initial IAU76/J2000 heliocentric ecliptic osculating elements (au, days, deg.): EPOCH= 2452054.5 ! 2001-May-25.0000000 (TDB) RMSW= n.a. EC= .9991295234393676 QR= 5.787018611359847 TP= 2452319.1440778025 OM= 20.02313274635543 W= 255.157503764398 IN= 92.03538807790534 Equivalent ICRF heliocentric cartesian coordinates (au, au/d): X=-3.766090267702720E+00 Y= 7.423706275838444E-01 Z=-4.722535467430159E+00 VX= 8.149498648801773E-03 VY= 4.702477656638935E-03 VZ=-2.945289653202130E-03 Comet physical (GM= km^3/s^2; RAD= km): GM= n.a. RAD= n.a. M1= 5.9 M2= 9. k1= 7.5 k2= 5. PHCOF= .030 ******************************************************************************* Date__(UT)__HR:MN delta deldot *************************************************** $$SOE 1990-Jan-28 00:00 36.7193840044485 -1.9743786 1990-Feb-28 00:00 36.6841193620537 -1.9657524 1990-Mar-28 00:00 36.6523858758979 -1.9588459 1990-Apr-28 00:00 36.6173897696251 -1.9507894 1990-May-28 00:00 36.5836497024003 -1.9427065 1990-Jun-28 00:00 36.5489248785724 -1.9356274 1990-Jul-28 00:00 36.5154515658626 -1.9275717 1990-Aug-28 00:00 36.4809941534128 -1.9204833 1990-Sep-28 00:00 36.4466783867638 -1.9132436 1990-Oct-28 00:00 36.4135953647703 -1.9055902 1990-Nov-28 00:00 36.3795430082792 -1.8987196 1990-Dec-28 00:00 36.3467202221741 -1.8911008 1991-Jan-28 00:00 36.3129289087062 -1.8835681 1991-Feb-28 00:00 36.2792744545734 -1.8764792 1991-Mar-28 00:00 36.2489876772769 -1.8689657 1991-Apr-28 00:00 36.2155788879397 -1.8621326 1991-May-28 00:00 36.1833752657833 -1.8549426 1991-Jun-28 00:00 36.1502197853286 -1.8476607 1991-Jul-28 00:00 36.1182595957915 -1.8414207 1991-Aug-28 00:00 36.0853587151068 -1.8339879 1991-Sep-28 00:00 36.0525808794576 -1.8273475 1991-Oct-28 00:00 36.0209846967796 -1.8208849 1991-Nov-28 00:00 35.9884522434519 -1.8135205 1991-Dec-28 00:00 35.9570875735551 -1.8074109 1992-Jan-28 00:00 35.9247985173837 -1.8000937 1992-Feb-28 00:00 35.8926250506299 -1.7931492 1992-Mar-28 00:00 35.8626392250722 -1.7872470 1992-Apr-28 00:00 35.8306967217269 -1.7799284 1992-May-28 00:00 35.7998947974621 -1.7744734 1992-Jun-28 00:00 35.7681836788583 -1.7679966 1992-Jul-28 00:00 35.7375992137905 -1.7619073 1992-Aug-28 00:00 35.7061098484535 -1.7563230 1992-Sep-28 00:00 35.6747314229226 -1.7496372 1992-Oct-28 00:00 35.6444663758797 -1.7440525 1992-Nov-28 00:00 35.6133035620157 -1.7380295 1992-Dec-28 00:00 35.5832427968169 -1.7317480 1993-Jan-28 00:00 35.5522841263368 -1.7263368 1993-Feb-28 00:00 35.5214303592824 -1.7202189 1993-Mar-28 00:00 35.4936440831130 -1.7151888 1993-Apr-28 00:00 35.4629814877520 -1.7099802 1993-May-28 00:00 35.4333977251400 -1.7044540 1993-Jun-28 00:00 35.4029224338286 -1.6997504 1993-Jul-28 00:00 35.3735229684732 -1.6946584 1993-Aug-28 00:00 35.3432285057636 -1.6895073 1993-Sep-28 00:00 35.3130274830140 -1.6850828 1993-Oct-28 00:00 35.2838825550168 -1.6797111 1993-Nov-28 00:00 35.2538469435558 -1.6752305 1993-Dec-28 00:00 35.2248629714084 -1.6706747 1994-Jan-28 00:00 35.1949869722579 -1.6656203 1994-Feb-28 00:00 35.1651902489940 -1.6620640 1994-Mar-28 00:00 35.1383424286923 -1.6579666 1994-Apr-28 00:00 35.1086837178300 -1.6544202 1994-May-28 00:00 35.0800528161863 -1.6512222 1994-Jun-28 00:00 35.0505294191631 -1.6470991 1994-Jul-28 00:00 35.0220197811889 -1.6444028 1994-Aug-28 00:00 34.9926217323930 -1.6406027 1994-Sep-28 00:00 34.9632761844661 -1.6373421 1994-Oct-28 00:00 34.9349322993186 -1.6347184 1994-Nov-28 00:00 34.9056912540685 -1.6314155 1994-Dec-28 00:00 34.8774356143536 -1.6292933 1995-Jan-28 00:00 34.8482848530638 -1.6269577 1995-Feb-28 00:00 34.8191685879463 -1.6246362 1995-Mar-28 00:00 34.7929028164077 -1.6237411 1995-Apr-28 00:00 34.7638526830974 -1.6217776 1995-May-28 00:00 34.7357623599531 -1.6207917 1995-Jun-28 00:00 34.7067621385982 -1.6197898 1995-Jul-28 00:00 34.6787099681667 -1.6184948 1995-Aug-28 00:00 34.6497362242398 -1.6183177 1995-Sep-28 00:00 34.6207714365611 -1.6176110 1995-Oct-28 00:00 34.5927383959986 -1.6174399 1995-Nov-28 00:00 34.5637718329690 -1.6181183 1995-Dec-28 00:00 34.5357284797465 -1.6181981 1996-Jan-28 00:00 34.5067346625737 -1.6198346 1996-Feb-28 00:00 34.4777229345948 -1.6212653 1996-Mar-28 00:00 34.4505535019488 -1.6228842 1996-Apr-28 00:00 34.4214798520247 -1.6256523 1996-May-28 00:00 34.3933042724140 -1.6275210 1996-Jun-28 00:00 34.3641379317541 -1.6307129 1996-Jul-28 00:00 34.3358623599900 -1.6338834 1996-Aug-28 00:00 34.3065759715016 -1.6372727 1996-Sep-28 00:00 34.2772167560256 -1.6420157 1996-Oct-28 00:00 34.2487277569080 -1.6463427 1996-Nov-28 00:00 34.2191945201179 -1.6517856 1996-Dec-28 00:00 34.1905214132350 -1.6579373 1997-Jan-28 00:00 34.1607806536034 -1.6641369 1997-Feb-28 00:00 34.1309167183760 -1.6717407 1997-Mar-28 00:00 34.1038322956680 -1.6787647 1997-Apr-28 00:00 34.0737030504879 -1.6870443 1997-May-28 00:00 34.0444000698485 -1.6961430 1997-Jun-28 00:00 34.0139520560489 -1.7054466 1997-Jul-28 00:00 33.9843099207126 -1.7158183 1997-Aug-28 00:00 33.9534897743789 -1.7271670 1997-Sep-28 00:00 33.9224539606539 -1.7389443 1997-Oct-28 00:00 33.8922043606643 -1.7522750 1997-Nov-28 00:00 33.8607080792464 -1.7660163 1997-Dec-28 00:00 33.8299762693922 -1.7809101 1998-Jan-28 00:00 33.7979500055155 -1.7974116 1998-Feb-28 00:00 33.7656239452889 -1.8141669 1998-Mar-28 00:00 33.7361537016757 -1.8312395 1998-Apr-28 00:00 33.7032065603066 -1.8501800 1998-May-28 00:00 33.6709765787523 -1.8699718 1998-Jun-28 00:00 33.6372997187267 -1.8921968 1998-Jul-28 00:00 33.6043210603374 -1.9142506 1998-Aug-28 00:00 33.5698170879084 -1.9394703 1998-Sep-28 00:00 33.5348582678803 -1.9658524 1998-Oct-28 00:00 33.5005601653435 -1.9928342 1998-Nov-28 00:00 33.4646133284096 -2.0229840 1998-Dec-28 00:00 33.4293061309594 -2.0532042 1999-Jan-28 00:00 33.3922485946010 -2.0866833 1999-Feb-28 00:00 33.3545807313340 -2.1222093 1999-Mar-28 00:00 33.3199973353957 -2.1553585 1999-Apr-28 00:00 33.2810558774944 -2.1950087 1999-May-28 00:00 33.2426818891963 -2.2348971 1999-Jun-28 00:00 33.2022714915562 -2.2787921 1999-Jul-28 00:00 33.1623978879372 -2.3239877 1999-Aug-28 00:00 33.1203530187992 -2.3725991 1999-Sep-28 00:00 33.0774065448773 -2.4247423 1999-Oct-28 00:00 33.0349437237932 -2.4775358 1999-Nov-28 00:00 32.9900771147215 -2.5347731 1999-Dec-28 00:00 32.9456575220148 -2.5937183 2000-Jan-28 00:00 32.8986672789904 -2.6565840 2000-Feb-28 00:00 32.8505110936485 -2.7233053 2000-Mar-28 00:00 32.8043602764675 -2.7884579 2000-Apr-28 00:00 32.7537863634255 -2.8610462 2000-May-28 00:00 32.7035723667261 -2.9352173 2000-Jun-28 00:00 32.6503125773987 -3.0145494 2000-Jul-28 00:00 32.5973824392580 -3.0949389 2000-Aug-28 00:00 32.5412018845935 -3.1813725 2000-Sep-28 00:00 32.4834477867638 -3.2705290 2000-Oct-28 00:00 32.4260064168863 -3.3603673 2000-Nov-28 00:00 32.3649991319488 -3.4556008 2000-Dec-28 00:00 32.3043097129050 -3.5502050 2001-Jan-28 00:00 32.2398538380290 -3.6507074 2001-Feb-28 00:00 32.1735843711279 -3.7525426 2001-Mar-28 00:00 32.1121408975127 -3.8462623 2001-Apr-28 00:00 32.0423401484270 -3.9509823 2001-May-28 00:00 31.9729963734159 -4.0526760 2001-Jun-28 00:00 31.8994875325365 -4.1583018 2001-Jul-28 00:00 31.8265610459803 -4.2592798 2001-Aug-28 00:00 31.7493715402679 -4.3626175 2001-Sep-28 00:00 31.6703567309999 -4.4638733 2001-Oct-28 00:00 31.5921911810228 -4.5584597 2001-Nov-28 00:00 31.5097233987563 -4.6532909 2001-Dec-28 00:00 31.4283426830455 -4.7402221 2002-Jan-28 00:00 31.3427011402072 -4.8252974 2002-Feb-28 00:00 31.2555865485074 -4.9049669 2002-Mar-28 00:00 31.1757213574305 -4.9709759 2002-Apr-28 00:00 31.0860984722760 -5.0386483 2002-May-28 00:00 30.9982786935504 -5.0970989 2002-Jun-28 00:00 30.9065260040406 -5.1505036 2002-Jul-28 00:00 30.8168858913157 -5.1955708 2002-Aug-28 00:00 30.7235076589599 -5.2343081 2002-Sep-28 00:00 30.6294953413494 -5.2662094 2002-Oct-28 00:00 30.5380373483354 -5.2901609 2002-Nov-28 00:00 30.4431523998434 -5.3079194 2002-Dec-28 00:00 30.3510776209828 -5.3192950 2003-Jan-28 00:00 30.2557850839297 -5.3244853 2003-Feb-28 00:00 30.1604445912945 -5.3241186 2003-Mar-28 00:00 30.0743768883975 -5.3193454 2003-Apr-28 00:00 29.9792193156657 -5.3089933 2003-May-28 00:00 29.8873429280626 -5.2952778 2003-Jun-28 00:00 29.7926982859746 -5.2765909 2003-Jul-28 00:00 29.7014523734472 -5.2551903 2003-Aug-28 00:00 29.6075874740456 -5.2300957 2003-Sep-28 00:00 29.5142023109643 -5.2014582 2003-Oct-28 00:00 29.4243323375092 -5.1719632 2003-Nov-28 00:00 29.3320297686924 -5.1388581 2003-Dec-28 00:00 29.2432785562456 -5.1049750 2004-Jan-28 00:00 29.1521966866897 -5.0689421 2004-Feb-28 00:00 29.0617768483470 -5.0310054 2004-Mar-28 00:00 28.9778070140981 -4.9950362 2004-Apr-28 00:00 28.8887275762884 -4.9555614 2004-May-28 00:00 28.8031998007939 -4.9165039 2004-Jun-28 00:00 28.7155364632243 -4.8760666 2004-Jul-28 00:00 28.6314011402398 -4.8360201 2004-Aug-28 00:00 28.5451867993367 -4.7946257 2004-Sep-28 00:00 28.4597191241529 -4.7531550 2004-Oct-28 00:00 28.3777167190065 -4.7124451 2004-Nov-28 00:00 28.2937145148432 -4.6709915 2004-Dec-28 00:00 28.2131331886467 -4.6305674 2005-Jan-28 00:00 28.1305933481641 -4.5889887 2005-Feb-28 00:00 28.0487950469087 -4.5481279 2005-Mar-28 00:00 27.9755436989960 -4.5109297 2005-Apr-28 00:00 27.8951382993816 -4.4706177 2005-May-28 00:00 27.8180194965365 -4.4316839 2005-Jun-28 00:00 27.7390342220355 -4.3915704 2005-Jul-28 00:00 27.6632772010074 -4.3536593 2005-Aug-28 00:00 27.5856889570950 -4.3140109 2005-Sep-28 00:00 27.5087970551730 -4.2752707 2005-Oct-28 00:00 27.4350466153004 -4.2380704 2005-Nov-28 00:00 27.3595081189212 -4.1996796 2005-Dec-28 00:00 27.2870506268943 -4.1636513 2006-Jan-28 00:00 27.2128379258629 -4.1262725 2006-Feb-28 00:00 27.1392837006052 -4.0895817 2006-Mar-28 00:00 27.0734130086034 -4.0571867 2006-Apr-28 00:00 27.0010988063476 -4.0209691 2006-May-28 00:00 26.9317264863640 -3.9869738 2006-Jun-28 00:00 26.8606667668008 -3.9516457 2006-Jul-28 00:00 26.7924917872231 -3.9178513 2006-Aug-28 00:00 26.7226556687168 -3.8836830 2006-Sep-28 00:00 26.6534308444943 -3.8492807 2006-Oct-28 00:00 26.5870133579506 -3.8168254 2006-Nov-28 00:00 26.5189745980892 -3.7835572 2006-Dec-28 00:00 26.4536917094820 -3.7514046 2007-Jan-28 00:00 26.3868116649778 -3.7192482 2007-Feb-28 00:00 26.3205134781441 -3.6867776 2007-Mar-28 00:00 26.2611229020175 -3.6582004 2007-Apr-28 00:00 26.1959150578794 -3.6267697 2007-May-28 00:00 26.1333455385148 -3.5960019 2007-Jun-28 00:00 26.0692410642301 -3.5652863 2007-Jul-28 00:00 26.0077340321776 -3.5350272 2007-Aug-28 00:00 25.9447137790111 -3.5042486 2007-Sep-28 00:00 25.8822414125403 -3.4742273 2007-Oct-28 00:00 25.8222975630964 -3.4445896 2007-Nov-28 00:00 25.7608818594716 -3.4151885 2007-Dec-28 00:00 25.7019573323984 -3.3865656 2008-Jan-28 00:00 25.6415850480056 -3.3570663 2008-Feb-28 00:00 25.5817394848849 -3.3283349 2008-Mar-28 00:00 25.5262278492229 -3.3009267 2008-Apr-28 00:00 25.4673858082001 -3.2722710 2008-May-28 00:00 25.4109358554324 -3.2445441 2008-Jun-28 00:00 25.3531041167728 -3.2156457 2008-Jul-28 00:00 25.2976228815836 -3.1884729 2008-Aug-28 00:00 25.2407919080594 -3.1599593 2008-Sep-28 00:00 25.1844606154674 -3.1317877 2008-Oct-28 00:00 25.1304270343643 -3.1051143 2008-Nov-28 00:00 25.0750815828948 -3.0769164 2008-Dec-28 00:00 25.0219934849501 -3.0506397 2009-Jan-28 00:00 24.9676261601771 -3.0231487 2009-Feb-28 00:00 24.9137481077626 -2.9954675 2009-Mar-28 00:00 24.8655093632840 -2.9712264 2009-Apr-28 00:00 24.8125669885269 -2.9433648 2009-May-28 00:00 24.7617951978379 -2.9171291 2009-Jun-28 00:00 24.7098138439821 -2.8898696 2009-Jul-28 00:00 24.6599680561192 -2.8630353 2009-Aug-28 00:00 24.6089393724416 -2.8365734 2009-Sep-28 00:00 24.5583959570134 -2.8092318 2009-Oct-28 00:00 24.5099390543833 -2.7833826 2009-Nov-28 00:00 24.4603458256036 -2.7568286 2009-Dec-28 00:00 24.4128090832677 -2.7305104 2010-Jan-28 00:00 24.3641606735765 -2.7041041 2010-Feb-28 00:00 24.3159964946533 -2.6771312 2010-Mar-28 00:00 24.2729022816898 -2.6526313 2010-Apr-28 00:00 24.2256512354304 -2.6260256 2010-May-28 00:00 24.1803800561202 -2.5994702 2010-Jun-28 00:00 24.1340702992607 -2.5729170 2010-Jul-28 00:00 24.0897154284547 -2.5468982 2010-Aug-28 00:00 24.0443504692449 -2.5198316 2010-Sep-28 00:00 23.9994687396180 -2.4935152 2010-Oct-28 00:00 23.9564938186178 -2.4672817 2010-Nov-28 00:00 23.9125568006998 -2.4406069 2010-Dec-28 00:00 23.8705006800802 -2.4149164 2011-Jan-28 00:00 23.8275139505352 -2.3874458 2011-Feb-28 00:00 23.7850105347243 -2.3609677 2011-Mar-28 00:00 23.7470390476685 -2.3358665 2011-Apr-28 00:00 23.7054552507127 -2.3085732 2011-May-28 00:00 23.6656790582267 -2.2826074 2011-Jun-28 00:00 23.6250534294990 -2.2547243 2011-Jul-28 00:00 23.5862013091020 -2.2290645 2011-Aug-28 00:00 23.5465387807594 -2.2017334 2011-Sep-28 00:00 23.5073616471266 -2.1742633 2011-Oct-28 00:00 23.4699186859055 -2.1483788 2011-Nov-28 00:00 23.4317121034340 -2.1203718 2011-Dec-28 00:00 23.3952045890505 -2.0938928 2012-Jan-28 00:00 23.3579714767395 -2.0662197 2012-Feb-28 00:00 23.3212305433635 -2.0379591 2012-Mar-28 00:00 23.2873107896693 -2.0122036 2012-Apr-28 00:00 23.2515367589931 -1.9838874 2012-May-28 00:00 23.2173885182887 -1.9568098 2012-Jun-28 00:00 23.1826010495937 -1.9290779 2012-Jul-28 00:00 23.1494128915488 -1.9014618 2012-Aug-28 00:00 23.1156153270814 -1.8737314 2012-Sep-28 00:00 23.0823287953999 -1.8454183 2012-Oct-28 00:00 23.0505959791303 -1.8176684 2012-Nov-28 00:00 23.0183110788622 -1.7897220 2012-Dec-28 00:00 22.9875553724208 -1.7612314 2013-Jan-28 00:00 22.9562769775548 -1.7325939 2013-Feb-28 00:00 22.9255191982408 -1.7036859 2013-Mar-28 00:00 22.8981784596616 -1.6767683 2013-Apr-28 00:00 22.8684057825064 -1.6483469 2013-May-28 00:00 22.8400914711193 -1.6196333 2013-Jun-28 00:00 22.8113448836579 -1.5907163 2013-Jul-28 00:00 22.7840312199540 -1.5627703 2013-Aug-28 00:00 22.7563233499870 -1.5327538 2013-Sep-28 00:00 22.7291450891540 -1.5036580 2013-Oct-28 00:00 22.7033540364461 -1.4745284 2013-Nov-28 00:00 22.6772231432641 -1.4444096 2013-Dec-28 00:00 22.6524493568548 -1.4156310 2014-Jan-28 00:00 22.6273780742833 -1.3848901 2014-Feb-28 00:00 22.6028441415132 -1.3548344 2014-Mar-28 00:00 22.5811551069067 -1.3274027 2014-Apr-28 00:00 22.5576556401668 -1.2967434 2014-May-28 00:00 22.5354379861360 -1.2678244 2014-Jun-28 00:00 22.5130206167526 -1.2367685 2014-Jul-28 00:00 22.4918476462900 -1.2072385 2014-Aug-28 00:00 22.4705186491604 -1.1765350 2014-Sep-28 00:00 22.4497410601443 -1.1448802 2014-Oct-28 00:00 22.4301652932378 -1.1151115 2014-Nov-28 00:00 22.4104903780807 -1.0832902 2014-Dec-28 00:00 22.3919800335948 -1.0524814 2015-Jan-28 00:00 22.3734125033231 -1.0213378 2015-Feb-28 00:00 22.3554098736444 -0.9889191 2015-Mar-28 00:00 22.3396356602091 -0.9609690 2015-Apr-28 00:00 22.3227200864029 -0.9290438 2015-May-28 00:00 22.3068908864050 -0.8979487 2015-Jun-28 00:00 22.2911037208556 -0.8665142 2015-Jul-28 00:00 22.2763756110110 -0.8345449 2015-Aug-28 00:00 22.2617230216670 -0.8023892 2015-Sep-28 00:00 22.2476570985347 -0.7697729 2015-Oct-28 00:00 22.2345961327483 -0.7374907 2015-Nov-28 00:00 22.2216772168251 -0.7051713 2015-Dec-28 00:00 22.2097370666963 -0.6728566 2016-Jan-28 00:00 22.1979743026301 -0.6398955 2016-Feb-28 00:00 22.1868088877074 -0.6072141 2016-Mar-28 00:00 22.1768994022866 -0.5757976 2016-Apr-28 00:00 22.1668830783616 -0.5430353 2016-May-28 00:00 22.1577640219322 -0.5106125 2016-Jun-28 00:00 22.1489257671221 -0.4768227 2016-Jul-28 00:00 22.1409501703030 -0.4446986 2016-Aug-28 00:00 22.1333018166499 -0.4102003 2016-Sep-28 00:00 22.1262562382435 -0.3764085 2016-Oct-28 00:00 22.1200217151139 -0.3434375 2016-Nov-28 00:00 22.1141746157000 -0.3085351 2016-Dec-28 00:00 22.1090997773880 -0.2762704 2017-Jan-28 00:00 22.1044619982410 -0.2415490 2017-Feb-28 00:00 22.1004347190255 -0.2073770 2017-Mar-28 00:00 22.0973332422291 -0.1770172 2017-Apr-28 00:00 22.0944845280546 -0.1417681 2017-May-28 00:00 22.0923186568681 -0.1088831 2017-Jun-28 00:00 22.0906960838813 -0.0735548 2017-Jul-28 00:00 22.0897141946369 -0.0394742 2017-Aug-28 00:00 22.0893191095802 -0.0048238 2017-Sep-28 00:00 22.0895495586346 0.0309162 2017-Oct-28 00:00 22.0903675612873 0.0646013 2017-Nov-28 00:00 22.0918382795203 0.0997906 2017-Dec-28 00:00 22.0938574951207 0.1342081 2018-Jan-28 00:00 22.0965697208043 0.1689053 2018-Feb-28 00:00 22.0999179487943 0.2046421 2018-Mar-28 00:00 22.1034844008928 0.2363884 2018-Apr-28 00:00 22.1080447941679 0.2718130 2018-May-28 00:00 22.1130610455417 0.3069775 2018-Jun-28 00:00 22.1188741835782 0.3422742 2018-Jul-28 00:00 22.1251119684694 0.3774856 2018-Aug-28 00:00 22.1321832066664 0.4135842 2018-Sep-28 00:00 22.1399020171567 0.4490371 2018-Oct-28 00:00 22.1479823927075 0.4845472 2018-Nov-28 00:00 22.1569649951021 0.5198642 2018-Dec-28 00:00 22.1662774715309 0.5545997 2019-Jan-28 00:00 22.1765312360929 0.5909602 2019-Feb-28 00:00 22.1874354067324 0.6263790 2019-Mar-28 00:00 22.1978431126591 0.6597989 2019-Apr-28 00:00 22.2099786088190 0.6958010 2019-May-28 00:00 22.2223463464073 0.7311281 2019-Jun-28 00:00 22.2357609405444 0.7681280 2019-Jul-28 00:00 22.2493637099679 0.8027644 2019-Aug-28 00:00 22.2640632491592 0.8396440 2019-Sep-28 00:00 22.2794096285897 0.8759214 2019-Oct-28 00:00 22.2948876756589 0.9106713 2019-Nov-28 00:00 22.3115215238265 0.9475703 2019-Dec-28 00:00 22.3282400854503 0.9822260 $$EOE ******************************************************************************* Column meaning: TIME Times PRIOR to 1962 are UT1, a mean-solar time closely related to the prior but now-deprecated GMT. Times AFTER 1962 are in UTC, the current civil or "wall-clock" time-scale. UTC is kept within 0.9 seconds of UT1 using integer leap-seconds for 1972 and later years. Conversion from the internal Barycentric Dynamical Time (TDB) of solar system dynamics to the non-uniform civil UT time-scale requested for output has not been determined for UTC times after the next July or January 1st. Therefore, the last known leap-second is used as a constant over future intervals. Time tags refer to the UT time-scale conversion from TDB on Earth regardless of observer location within the solar system, although clock rates may differ due to the local gravity field and no analog to "UT" may be defined for that location. Any 'b' symbol in the 1st-column denotes a B.C. date. First-column blank (" ") denotes an A.D. date. Calendar dates prior to 1582-Oct-15 are in the Julian calendar system. Later calendar dates are in the Gregorian system. NOTE: "n.a." in output means quantity "not available" at the print-time. 'delta deldot' = Apparent range ("delta", light-time aberrated) and range-rate ("delta-dot") of the target center relative to the observer. A positive "deldot" means the target center is moving away from the observer, negative indicates movement toward the observer. Units: AU and KM/S Computations by ... Solar System Dynamics Group, Horizons On-Line Ephemeris System 4800 Oak Grove Drive, Jet Propulsion Laboratory Pasadena, CA 91109 USA General site: https://ssd.jpl.nasa.gov/ Mailing list: https://ssd.jpl.nasa.gov/email_list.html System news : https://ssd.jpl.nasa.gov/horizons/news.html User Guide : https://ssd.jpl.nasa.gov/horizons/manual.html Connect : browser https://ssd.jpl.nasa.gov/horizons/app.html#/x API https://ssd-api.jpl.nasa.gov/doc/horizons.html command-line telnet ssd.jpl.nasa.gov 6775 e-mail/batch https://ssd.jpl.nasa.gov/ftp/ssd/hrzn_batch.txt scripts https://ssd.jpl.nasa.gov/ftp/ssd/SCRIPTS Author : Jon.D.Giorgini@jpl.nasa.gov ******************************************************************************* !$$SOF COMMAND = '1999 F1' MAKE_EPHEM = 'YES' TABLE_TYPE = 'OBSERVER' START_TIME = '1990-01-28' STOP_TIME = '2020-01-01' STEP_SIZE = '1 month' QUANTITIES = '20' CENTER = '@899'